CKS247 KCVG-EDDP

Flight info

Callsign CKS247
Flight time N/A
Altitude 33000
Route BNGLE5 WWSHR DCT EWC DCT SLT J190 CFB DCT TOPPS/N0481F350 N507B ALLRY/M083F360 DCT 51N050W 53N040W 55N030W 56N020W DCT PIKIL DCT SOVED/N0470F370 DCT KUGUR DCT BELZU DCT MASOP DCT BELOX DCT BUKUT L603 LAMSO DCT NORTA/N0424F230 DCT ADMOS T959 KOJEC KOJEC1V
Aircraft B77L/H-SDE1E2E3FGHIJ2J3J4J5M1RWXY/LB1D1

Departure

Time N/A
Airport Cincinnati Northern Kentucky International Airport (KCVG)

Arrival

Time 2026-05-04 03:27
Airport Leipzig/Halle Airport (EDDP)
Time Latitude Longitude Altitude Speed Heading
2026-05-03 20:15 41.35656 -78.49668 36997 ft 525 kts 65°
2026-05-03 20:15 41.38362 -78.40633 37002 ft 525 kts 65°
2026-05-03 20:16 41.41064 -78.31584 37010 ft 526 kts 66°
2026-05-03 20:16 41.43757 -78.22528 36999 ft 525 kts 66°
2026-05-03 20:17 41.46440 -78.13478 36994 ft 525 kts 66°
2026-05-03 20:17 41.49110 -78.04440 36997 ft 523 kts 66°
2026-05-03 20:18 41.51755 -77.95638 36972 ft 521 kts 63°
2026-05-03 20:18 41.54871 -77.86929 36985 ft 520 kts 61°
2026-05-03 20:19 41.58058 -77.78268 36981 ft 520 kts 61°
2026-05-03 20:19 41.61217 -77.69578 36965 ft 520 kts 62°
2026-05-03 20:20 41.64346 -77.60870 36981 ft 520 kts 62°
2026-05-03 20:20 41.67467 -77.52144 36975 ft 520 kts 62°
2026-05-03 20:21 41.70584 -77.43407 36973 ft 521 kts 62°
2026-05-03 20:21 41.73700 -77.34649 36964 ft 521 kts 62°
2026-05-03 20:22 41.76809 -77.25882 36967 ft 521 kts 62°
2026-05-03 20:22 41.79894 -77.17160 36949 ft 521 kts 62°
2026-05-03 20:23 41.82992 -77.08378 36952 ft 521 kts 62°
2026-05-03 20:23 41.86035 -76.99745 36947 ft 521 kts 62°
2026-05-03 20:24 41.89114 -76.90985 36941 ft 522 kts 62°
2026-05-03 20:24 41.92189 -76.82152 36940 ft 522 kts 63°
2026-05-03 20:25 41.95250 -76.73311 36940 ft 522 kts 63°
2026-05-03 20:25 41.98306 -76.64467 36933 ft 522 kts 63°
2026-05-03 20:26 42.01354 -76.55621 36934 ft 522 kts 63°
2026-05-03 20:26 42.04396 -76.46766 36934 ft 522 kts 63°
2026-05-03 20:27 42.07432 -76.37898 36932 ft 522 kts 63°
2026-05-03 20:27 42.10461 -76.29023 36928 ft 521 kts 63°
2026-05-03 20:28 42.13479 -76.20153 36932 ft 521 kts 63°
2026-05-03 20:28 42.16603 -76.11346 36924 ft 520 kts 58°
2026-05-03 20:29 42.20247 -76.02944 36916 ft 519 kts 56°
2026-05-03 20:29 42.23887 -75.94745 36911 ft 519 kts 57°
2026-05-03 20:30 42.27569 -75.86358 36932 ft 519 kts 57°
2026-05-03 20:30 42.31224 -75.77931 36926 ft 520 kts 57°
2026-05-03 20:31 42.34862 -75.69495 36930 ft 520 kts 57°
2026-05-03 20:31 42.38499 -75.61037 36917 ft 520 kts 57°
2026-05-03 20:32 42.42129 -75.52579 36908 ft 520 kts 57°
2026-05-03 20:32 42.45755 -75.44106 36910 ft 520 kts 57°
2026-05-03 20:33 42.49374 -75.35626 36933 ft 520 kts 58°
2026-05-03 20:33 42.52960 -75.27200 36917 ft 520 kts 58°
2026-05-03 20:34 42.56568 -75.18696 36919 ft 520 kts 58°
2026-05-03 20:34 42.60167 -75.10188 36913 ft 520 kts 58°
2026-05-03 20:35 42.63756 -75.01680 36917 ft 519 kts 58°
2026-05-03 20:35 42.67270 -74.93325 36923 ft 519 kts 58°
2026-05-03 20:36 42.70843 -74.84806 36915 ft 518 kts 58°
2026-05-03 20:36 42.74408 -74.76283 36913 ft 518 kts 58°
2026-05-03 20:37 42.77959 -74.67766 36918 ft 517 kts 58°
2026-05-03 20:37 42.81498 -74.59253 36915 ft 517 kts 58°
2026-05-03 20:38 42.85030 -74.50733 36912 ft 516 kts 59°
2026-05-03 20:38 42.88553 -74.42209 36908 ft 516 kts 59°
2026-05-03 20:39 42.92064 -74.33689 36905 ft 515 kts 59°
2026-05-03 20:39 42.95568 -74.25163 36921 ft 515 kts 59°
2026-05-03 20:40 42.99065 -74.16628 36906 ft 515 kts 59°
2026-05-03 20:40 43.02548 -74.08100 36904 ft 514 kts 59°
2026-05-03 20:41 43.05441 -74.00997 36896 ft 514 kts 59°
2026-05-03 20:41 43.08854 -73.92597 36907 ft 514 kts 59°
2026-05-03 20:42 43.12294 -73.84107 36890 ft 514 kts 59°
2026-05-03 20:42 43.15751 -73.75546 36875 ft 513 kts 59°
2026-05-03 20:43 43.19197 -73.66990 36879 ft 513 kts 60°
2026-05-03 20:43 43.22640 -73.58416 36864 ft 513 kts 60°
2026-05-03 20:44 43.26076 -73.49832 36882 ft 514 kts 60°
2026-05-03 20:44 43.29509 -73.41228 36873 ft 514 kts 60°
2026-05-03 20:45 43.32939 -73.32609 36870 ft 514 kts 60°
2026-05-03 20:45 43.36365 -73.23972 36862 ft 515 kts 60°
2026-05-03 20:46 43.39783 -73.15330 36882 ft 515 kts 60°
2026-05-03 20:46 43.43196 -73.06674 36868 ft 515 kts 60°
2026-05-03 20:47 43.46534 -72.98184 36860 ft 515 kts 60°
2026-05-03 20:47 43.49934 -72.89508 36854 ft 515 kts 60°
2026-05-03 20:48 43.53327 -72.80825 36866 ft 515 kts 61°
2026-05-03 20:48 43.56712 -72.72135 36863 ft 515 kts 61°
2026-05-03 20:49 43.60091 -72.63435 36850 ft 515 kts 61°
2026-05-03 20:49 43.63466 -72.54715 36829 ft 515 kts 61°
2026-05-03 20:50 43.66835 -72.45985 36845 ft 515 kts 61°
2026-05-03 20:50 43.70198 -72.37246 36836 ft 515 kts 61°
2026-05-03 20:51 43.73559 -72.28484 36832 ft 516 kts 61°
2026-05-03 20:51 43.76911 -72.19717 36836 ft 516 kts 61°
2026-05-03 20:52 43.80255 -72.10944 36824 ft 516 kts 62°
2026-05-03 20:52 43.83594 -72.02159 36830 ft 515 kts 62°
2026-05-03 20:53 43.86861 -71.93534 36825 ft 515 kts 62°
2026-05-03 20:53 43.90182 -71.84739 36823 ft 515 kts 62°
2026-05-03 20:54 43.93500 -71.75924 36825 ft 515 kts 62°
2026-05-03 20:54 43.98440 -71.62749 36819 ft 515 kts 62°
2026-05-03 20:55 44.01732 -71.53935 36810 ft 515 kts 62°
2026-05-03 20:55 44.05025 -71.45092 36811 ft 515 kts 62°
2026-05-03 20:56 44.08308 -71.36245 36814 ft 515 kts 63°
2026-05-03 20:56 44.11585 -71.27388 36800 ft 515 kts 63°
2026-05-03 20:57 44.14849 -71.18535 36776 ft 514 kts 63°
2026-05-03 20:57 44.18109 -71.09665 36781 ft 514 kts 63°
2026-05-03 20:58 44.21358 -71.00798 36769 ft 513 kts 63°
2026-05-03 20:58 44.24538 -70.92094 36781 ft 513 kts 63°
2026-05-03 20:59 44.27770 -70.83214 36786 ft 513 kts 63°
2026-05-03 20:59 44.30999 -70.74316 36792 ft 514 kts 63°
2026-05-03 21:00 44.33676 -70.66917 36784 ft 514 kts 63°
2026-05-03 21:00 44.37434 -70.56496 36774 ft 514 kts 64°
2026-05-03 21:01 44.40644 -70.47564 36775 ft 514 kts 64°
2026-05-03 21:01 44.43847 -70.38624 36768 ft 514 kts 64°
2026-05-03 21:02 44.47041 -70.29677 36772 ft 514 kts 64°
2026-05-03 21:02 44.50227 -70.20723 36742 ft 514 kts 64°
2026-05-03 21:03 44.53404 -70.11766 36754 ft 514 kts 64°
2026-05-03 21:03 44.56554 -70.02856 36708 ft 513 kts 64°
2026-05-03 21:04 44.59671 -69.94012 36713 ft 513 kts 64°
2026-05-03 21:04 44.62826 -69.85026 36700 ft 513 kts 64°
2026-05-03 21:05 44.65974 -69.76033 36694 ft 513 kts 65°
2026-05-03 21:05 44.69115 -69.67029 36698 ft 513 kts 65°
2026-05-03 21:06 44.72246 -69.58024 36701 ft 513 kts 65°
2026-05-03 21:06 44.75374 -69.49000 36684 ft 513 kts 65°
2026-05-03 21:07 44.78491 -69.39976 36715 ft 513 kts 65°
2026-05-03 21:07 44.81597 -69.30951 36719 ft 512 kts 65°
2026-05-03 21:08 44.84699 -69.21908 36714 ft 512 kts 65°
2026-05-03 21:08 44.87792 -69.12862 36706 ft 512 kts 65°
2026-05-03 21:09 44.90881 -69.03799 36705 ft 512 kts 65°
2026-05-03 21:09 44.93893 -68.94930 36698 ft 513 kts 65°
2026-05-03 21:10 44.96969 -68.85843 36691 ft 513 kts 66°
2026-05-03 21:10 45.00028 -68.76773 36701 ft 512 kts 66°
2026-05-03 21:11 45.03084 -68.67681 36709 ft 512 kts 66°
2026-05-03 21:11 45.06135 -68.58575 36711 ft 512 kts 66°
2026-05-03 21:12 45.09177 -68.49462 36702 ft 512 kts 66°
2026-05-03 21:12 45.12212 -68.40341 36707 ft 512 kts 66°
2026-05-03 21:13 45.15238 -68.31217 36698 ft 512 kts 66°
2026-05-03 21:13 45.18255 -68.22083 36694 ft 512 kts 67°
2026-05-03 21:14 45.21265 -68.12939 36699 ft 512 kts 67°
2026-05-03 21:14 45.24270 -68.03782 36687 ft 512 kts 67°
2026-05-03 21:15 45.27205 -67.94805 36680 ft 512 kts 67°
2026-05-03 21:15 45.30195 -67.85629 36682 ft 512 kts 67°
2026-05-03 21:16 45.33178 -67.76449 36677 ft 511 kts 67°
2026-05-03 21:16 45.36611 -67.67586 36683 ft 513 kts 60°
2026-05-03 21:17 45.39753 -67.60432 36678 ft 513 kts 60°
2026-05-03 21:17 45.44189 -67.50370 36667 ft 513 kts 60°
2026-05-03 21:18 45.47941 -67.41729 36666 ft 513 kts 60°
2026-05-03 21:18 45.51670 -67.33054 36667 ft 514 kts 60°
2026-05-03 21:19 45.55394 -67.24353 36643 ft 514 kts 60°
2026-05-03 21:19 45.59108 -67.15656 36636 ft 513 kts 61°
2026-05-03 21:20 45.62819 -67.06942 36645 ft 513 kts 61°
2026-05-03 21:20 45.66425 -66.98450 36634 ft 513 kts 61°
2026-05-03 21:21 45.70120 -66.89720 36645 ft 513 kts 61°
2026-05-03 21:21 45.73812 -66.80971 36642 ft 514 kts 61°
2026-05-03 21:22 45.77500 -66.72204 36635 ft 514 kts 61°
2026-05-03 21:22 45.81184 -66.63418 36632 ft 514 kts 62°
2026-05-03 21:23 45.84861 -66.54623 36620 ft 514 kts 62°
2026-05-03 21:23 45.88527 -66.45826 36633 ft 514 kts 62°
2026-05-03 21:24 45.92188 -66.37012 36630 ft 514 kts 62°
2026-05-03 21:24 45.95846 -66.28176 36631 ft 514 kts 62°
2026-05-03 21:25 45.99497 -66.19331 36626 ft 514 kts 62°
2026-05-03 21:25 46.02520 -66.11986 36634 ft 514 kts 62°
2026-05-03 21:26 46.06160 -66.03115 36635 ft 514 kts 62°
2026-05-03 21:26 46.09697 -65.94471 36636 ft 514 kts 63°
2026-05-03 21:27 46.13316 -65.85594 36640 ft 514 kts 63°
2026-05-03 21:27 46.16927 -65.76710 36634 ft 513 kts 63°
2026-05-03 21:28 46.20526 -65.67826 36633 ft 513 kts 63°
2026-05-03 21:28 46.24116 -65.58936 36647 ft 513 kts 63°
2026-05-03 21:29 46.27700 -65.50032 36646 ft 513 kts 63°
2026-05-03 21:29 46.31278 -65.41115 36642 ft 513 kts 63°
2026-05-03 21:30 46.34848 -65.32187 36642 ft 513 kts 63°
2026-05-03 21:30 46.38413 -65.23247 36646 ft 512 kts 63°
2026-05-03 21:31 46.41965 -65.14305 36656 ft 512 kts 63°
2026-05-03 21:31 46.45509 -65.05357 36644 ft 512 kts 64°
2026-05-03 21:32 46.48973 -64.96581 36672 ft 512 kts 64°
2026-05-03 21:32 46.52509 -64.87595 36666 ft 513 kts 64°
2026-05-03 21:33 46.56047 -64.78572 36663 ft 514 kts 64°
2026-05-03 21:33 46.59581 -64.69529 36665 ft 515 kts 64°
2026-05-03 21:34 46.63114 -64.60461 36669 ft 515 kts 64°
2026-05-03 21:34 46.66642 -64.51377 36658 ft 515 kts 65°
2026-05-03 21:35 46.70163 -64.42279 36663 ft 515 kts 65°
2026-05-03 21:35 46.73675 -64.33173 36658 ft 515 kts 65°
2026-05-03 21:36 46.77179 -64.24057 36630 ft 515 kts 65°
2026-05-03 21:36 46.80673 -64.14938 36654 ft 514 kts 65°
2026-05-03 21:37 46.84154 -64.05820 36660 ft 514 kts 65°
2026-05-03 21:37 46.87564 -63.96858 36652 ft 514 kts 65°
2026-05-03 21:38 46.91007 -63.87782 36639 ft 514 kts 66°
2026-05-03 21:38 46.94459 -63.78650 36651 ft 513 kts 66°
2026-05-03 21:39 46.97902 -63.69510 36617 ft 512 kts 66°
2026-05-03 21:39 47.01319 -63.60408 36645 ft 512 kts 66°
2026-05-03 21:40 47.04745 -63.51251 36653 ft 512 kts 66°
2026-05-03 21:40 47.08164 -63.42082 36662 ft 512 kts 66°
2026-05-03 21:41 47.11577 -63.32897 36660 ft 513 kts 66°
2026-05-03 21:41 47.14986 -63.23690 36668 ft 513 kts 66°
2026-05-03 21:42 47.18390 -63.14466 36655 ft 514 kts 66°
2026-05-03 21:42 47.21788 -63.05228 36661 ft 514 kts 66°
2026-05-03 21:43 47.25123 -62.96127 36636 ft 514 kts 67°
2026-05-03 21:43 47.28507 -62.86861 36670 ft 515 kts 67°
2026-05-03 21:44 47.31895 -62.77553 36678 ft 516 kts 67°
2026-05-03 21:44 47.35282 -62.68213 36686 ft 517 kts 67°
2026-05-03 21:45 47.38670 -62.58839 36683 ft 518 kts 67°
2026-05-03 21:45 47.42055 -62.49442 36685 ft 519 kts 67°
2026-05-03 21:46 47.45433 -62.40030 36683 ft 519 kts 67°
2026-05-03 21:46 47.48801 -62.30613 36695 ft 518 kts 67°
2026-05-03 21:47 47.52157 -62.21195 36663 ft 518 kts 67°
2026-05-03 21:47 47.55481 -62.11831 36696 ft 517 kts 68°
2026-05-03 21:48 47.58843 -62.02325 36707 ft 518 kts 68°
2026-05-03 21:48 47.62124 -61.93015 36712 ft 519 kts 68°
2026-05-03 21:49 47.65439 -61.83577 36683 ft 520 kts 68°
2026-05-03 21:49 47.68800 -61.73973 36687 ft 521 kts 68°
2026-05-03 21:50 47.72111 -61.64478 36698 ft 522 kts 68°
2026-05-03 21:50 47.75438 -61.54902 36711 ft 522 kts 68°
2026-05-03 21:51 47.78760 -61.45307 36674 ft 522 kts 69°
2026-05-03 21:51 47.82068 -61.35715 36722 ft 521 kts 69°
2026-05-03 21:52 47.85371 -61.26102 36729 ft 521 kts 69°
2026-05-03 21:52 47.88665 -61.16476 36724 ft 521 kts 69°
2026-05-03 21:53 47.91952 -61.06840 36729 ft 522 kts 69°
2026-05-03 21:53 47.95173 -60.97358 36737 ft 522 kts 69°
2026-05-03 21:54 47.98445 -60.87693 36737 ft 522 kts 69°
2026-05-03 21:54 48.01702 -60.78037 36739 ft 522 kts 69°
2026-05-03 21:55 48.04958 -60.68346 36699 ft 522 kts 70°
2026-05-03 21:55 48.08207 -60.58639 36740 ft 522 kts 70°
2026-05-03 21:56 48.11453 -60.48903 36752 ft 523 kts 70°
2026-05-03 21:56 48.14679 -60.39192 36741 ft 525 kts 70°
2026-05-03 21:57 48.17925 -60.29380 36754 ft 527 kts 70°
2026-05-03 21:57 48.21181 -60.19505 36754 ft 529 kts 70°
2026-05-03 21:58 48.24437 -60.09591 36750 ft 531 kts 70°
2026-05-03 21:58 48.27649 -59.99771 36734 ft 532 kts 69°
2026-05-03 21:59 48.30882 -59.89850 36709 ft 533 kts 69°
2026-05-03 21:59 48.34136 -59.79829 36744 ft 534 kts 69°
2026-05-03 22:00 48.37388 -59.69768 36744 ft 536 kts 69°
2026-05-03 22:00 48.40640 -59.59667 36733 ft 537 kts 69°
2026-05-03 22:01 48.43889 -59.49539 36745 ft 538 kts 69°
2026-05-03 22:01 48.47136 -59.39375 36737 ft 538 kts 69°
2026-05-03 22:02 48.50374 -59.29198 36736 ft 539 kts 69°
2026-05-03 22:02 48.53605 -59.19003 36741 ft 538 kts 69°
2026-05-03 22:03 48.56822 -59.08810 36700 ft 538 kts 69°
2026-05-03 22:03 48.59960 -58.98825 36728 ft 537 kts 69°
2026-05-03 22:04 48.63160 -58.88603 36735 ft 538 kts 69°
2026-05-03 22:04 48.66351 -58.78364 36725 ft 539 kts 69°
2026-05-03 22:05 48.69535 -58.68108 36740 ft 539 kts 69°
2026-05-03 22:05 48.72719 -58.57811 36745 ft 540 kts 69°
2026-05-03 22:06 48.75879 -58.47547 36743 ft 542 kts 69°
2026-05-03 22:06 48.79056 -58.37186 36743 ft 542 kts 69°
2026-05-03 22:07 48.82229 -58.26795 36707 ft 543 kts 69°
2026-05-03 22:07 48.85388 -58.16406 36757 ft 542 kts 69°
2026-05-03 22:08 48.88544 -58.05985 36769 ft 544 kts 69°
2026-05-03 22:08 48.91631 -57.95744 36776 ft 544 kts 70°
2026-05-03 22:09 48.94776 -57.85270 36792 ft 544 kts 70°
2026-05-03 22:10 48.99476 -57.69529 36809 ft 544 kts 70°
2026-05-03 22:10 49.02585 -57.59068 36824 ft 544 kts 70°
2026-05-03 22:11 49.05698 -57.48543 36807 ft 545 kts 70°
2026-05-03 22:11 49.08801 -57.38005 36792 ft 545 kts 70°
2026-05-03 22:12 49.11897 -57.27445 36818 ft 546 kts 70°
2026-05-03 22:12 49.14988 -57.16856 36843 ft 546 kts 70°
2026-05-03 22:13 49.17554 -57.08028 36861 ft 548 kts 70°
2026-05-03 22:13 49.20574 -56.97600 36859 ft 549 kts 70°
2026-05-03 22:14 49.23655 -56.86916 36869 ft 550 kts 70°
2026-05-03 22:14 49.26732 -56.76199 36867 ft 550 kts 70°
2026-05-03 22:15 49.29802 -56.65457 36883 ft 550 kts 69°
2026-05-03 22:15 49.32860 -56.54707 36885 ft 550 kts 70°
2026-05-03 22:16 49.35908 -56.43945 36886 ft 550 kts 70°
2026-05-03 22:16 49.38946 -56.33170 36894 ft 550 kts 70°
2026-05-03 22:17 49.41972 -56.22383 36904 ft 550 kts 69°
2026-05-03 22:17 49.44988 -56.11591 36901 ft 550 kts 69°
2026-05-03 22:18 49.47993 -56.00786 36906 ft 550 kts 69°
2026-05-03 22:18 49.50922 -55.90207 36900 ft 549 kts 69°
2026-05-03 22:19 49.53904 -55.79385 36907 ft 549 kts 69°
2026-05-03 22:19 49.56875 -55.68556 36877 ft 548 kts 69°
2026-05-03 22:20 49.59831 -55.57728 36903 ft 549 kts 69°
2026-05-03 22:20 49.62783 -55.46866 36908 ft 549 kts 69°
2026-05-03 22:21 49.65725 -55.35989 36908 ft 550 kts 69°
2026-05-03 22:21 49.68642 -55.25160 36901 ft 550 kts 69°
2026-05-03 22:22 49.71567 -55.14243 36899 ft 550 kts 69°
2026-05-03 22:22 49.74482 -55.03316 36894 ft 550 kts 69°
2026-05-03 22:23 49.77333 -54.92579 36895 ft 550 kts 69°
2026-05-03 22:23 49.80226 -54.81628 36868 ft 549 kts 68°
2026-05-03 22:24 49.83105 -54.70682 36890 ft 548 kts 68°
2026-05-03 22:24 49.85969 -54.59738 36897 ft 548 kts 69°
2026-05-03 22:25 49.88820 -54.48795 36901 ft 547 kts 68°
2026-05-03 22:25 49.91657 -54.37850 36896 ft 547 kts 68°
2026-05-03 22:26 49.94480 -54.26908 36902 ft 546 kts 68°
2026-05-03 22:26 49.97292 -54.15957 36899 ft 545 kts 69°
2026-05-03 22:27 50.00078 -54.05051 36931 ft 544 kts 68°
2026-05-03 22:27 50.02803 -53.94335 36866 ft 543 kts 68°
2026-05-03 22:28 50.05564 -53.83427 36907 ft 541 kts 68°
2026-05-03 22:28 50.08310 -53.72521 36906 ft 540 kts 69°
2026-05-03 22:29 50.11040 -53.61629 36910 ft 540 kts 69°
2026-05-03 22:29 50.13762 -53.50717 36916 ft 540 kts 69°
2026-05-03 22:30 50.16473 -53.39791 36915 ft 540 kts 69°
2026-05-03 22:30 50.19175 -53.28849 36915 ft 541 kts 69°
2026-05-03 22:31 50.21868 -53.17890 36948 ft 541 kts 69°
2026-05-03 22:31 50.24558 -53.06888 36928 ft 542 kts 69°
2026-05-03 22:32 50.27189 -52.96079 36921 ft 543 kts 68°
2026-05-03 22:32 50.29847 -52.85098 36930 ft 544 kts 68°
2026-05-03 22:33 50.32535 -52.73940 36934 ft 545 kts 69°
2026-05-03 22:33 50.35182 -52.62896 36940 ft 546 kts 68°
2026-05-03 22:34 50.37842 -52.51741 36935 ft 547 kts 69°
2026-05-03 22:34 50.40491 -52.40575 36938 ft 547 kts 69°
2026-05-03 22:35 50.43129 -52.29393 36940 ft 547 kts 69°
2026-05-03 22:35 50.45755 -52.18209 36948 ft 546 kts 68°
2026-05-03 22:36 50.48370 -52.07013 36935 ft 546 kts 68°
2026-05-03 22:36 50.50940 -51.96072 36943 ft 544 kts 67°
2026-05-03 22:37 50.53786 -51.85064 36952 ft 543 kts 65°
2026-05-03 22:37 50.56702 -51.74100 36963 ft 543 kts 65°
2026-05-03 22:38 50.59569 -51.63118 36952 ft 542 kts 66°
2026-05-03 22:38 50.62389 -51.52126 36960 ft 541 kts 66°
2026-05-03 22:39 50.65193 -51.41116 36960 ft 541 kts 66°
2026-05-03 22:39 50.67982 -51.30121 36980 ft 540 kts 66°
2026-05-03 22:40 50.70759 -51.19133 36964 ft 539 kts 66°
2026-05-03 22:40 50.73523 -51.08144 36947 ft 538 kts 66°
2026-05-03 22:41 50.76212 -50.97401 36973 ft 536 kts 66°
2026-05-03 22:41 50.78940 -50.86448 37001 ft 535 kts 66°
2026-05-03 22:42 50.81654 -50.75497 36981 ft 534 kts 66°
2026-05-03 22:42 50.84334 -50.64627 36979 ft 533 kts 66°
2026-05-03 22:43 50.87015 -50.53703 36991 ft 532 kts 66°
2026-05-03 22:43 50.89682 -50.42782 37020 ft 531 kts 66°
2026-05-03 22:44 50.92330 -50.31880 36998 ft 529 kts 66°
2026-05-03 22:44 50.94952 -50.21033 36999 ft 525 kts 66°
2026-05-03 22:45 50.97548 -50.10242 36998 ft 522 kts 67°
2026-05-03 22:45 51.00080 -49.99674 37006 ft 520 kts 66°
2026-05-03 22:46 51.02710 -49.89054 37018 ft 519 kts 65°
2026-05-03 22:46 51.05406 -49.78427 37011 ft 518 kts 65°
2026-05-03 22:47 51.08086 -49.67797 37023 ft 518 kts 66°
2026-05-03 22:47 51.10744 -49.57138 37022 ft 518 kts 66°
2026-05-03 22:48 51.13386 -49.46460 37015 ft 519 kts 66°
2026-05-03 22:48 51.16026 -49.35739 37023 ft 520 kts 66°
2026-05-03 22:49 51.18658 -49.24998 37028 ft 521 kts 66°
2026-05-03 22:49 51.21286 -49.14224 37030 ft 522 kts 66°
2026-05-03 22:50 51.23907 -49.03425 37038 ft 522 kts 66°
2026-05-03 22:50 51.26474 -48.92800 37030 ft 523 kts 66°
2026-05-03 22:51 51.29084 -48.81946 37031 ft 524 kts 66°
2026-05-03 22:51 51.31669 -48.71136 37052 ft 524 kts 66°
2026-05-03 22:52 51.34263 -48.60236 37059 ft 525 kts 67°
2026-05-03 22:52 51.36851 -48.49305 37049 ft 525 kts 66°
2026-05-03 22:53 51.39432 -48.38348 37056 ft 526 kts 66°
2026-05-03 22:53 51.42006 -48.27369 37061 ft 527 kts 67°
2026-05-03 22:54 51.44570 -48.16373 37063 ft 527 kts 67°
2026-05-03 22:54 51.47130 -48.05342 37053 ft 528 kts 67°
2026-05-03 22:55 51.49630 -47.94510 37083 ft 529 kts 67°
2026-05-03 22:55 51.52174 -47.83429 37085 ft 529 kts 67°
2026-05-03 22:56 51.54708 -47.72336 37073 ft 529 kts 67°
2026-05-03 22:56 51.57234 -47.61220 37095 ft 529 kts 68°
2026-05-03 22:57 51.59745 -47.50113 37087 ft 528 kts 68°
2026-05-03 22:57 51.62240 -47.39012 37086 ft 527 kts 68°
2026-05-03 22:58 51.64719 -47.27927 37095 ft 526 kts 68°
2026-05-03 22:58 51.67184 -47.16851 37115 ft 525 kts 68°
2026-05-03 22:59 51.69630 -47.05796 37107 ft 523 kts 68°
2026-05-03 22:59 51.71603 -46.96841 37103 ft 522 kts 68°
2026-05-03 23:00 51.74021 -46.85807 37117 ft 521 kts 69°
2026-05-03 23:00 51.76422 -46.74791 37113 ft 520 kts 69°
2026-05-03 23:01 51.78809 -46.63783 37133 ft 519 kts 69°
2026-05-03 23:01 51.81186 -46.52766 37123 ft 519 kts 69°
2026-05-03 23:02 51.83547 -46.41759 37137 ft 518 kts 69°
2026-05-03 23:02 51.85898 -46.30735 37142 ft 518 kts 69°
2026-05-03 23:03 51.88240 -46.19700 37157 ft 519 kts 69°
2026-05-03 23:03 51.90575 -46.08639 37154 ft 519 kts 70°
2026-05-03 23:04 51.92841 -45.97844 37157 ft 519 kts 70°
2026-05-03 23:04 51.95155 -45.86760 37161 ft 519 kts 70°
2026-05-03 23:05 51.97458 -45.75666 37162 ft 519 kts 70°
2026-05-03 23:05 51.99751 -45.64555 37171 ft 519 kts 70°
2026-05-03 23:06 52.02032 -45.53447 37172 ft 518 kts 70°
2026-05-03 23:06 52.04298 -45.42348 37182 ft 517 kts 70°
2026-05-03 23:07 52.06549 -45.31258 37187 ft 517 kts 70°
2026-05-03 23:07 52.08789 -45.20165 37196 ft 516 kts 71°
2026-05-03 23:08 52.11015 -45.09075 37195 ft 515 kts 71°
2026-05-03 23:08 52.13183 -44.98211 37198 ft 515 kts 71°
2026-05-03 23:09 52.15383 -44.87125 37203 ft 514 kts 71°
2026-05-03 23:09 52.17571 -44.76037 37210 ft 514 kts 71°
2026-05-03 23:10 52.19748 -44.64943 37209 ft 514 kts 71°
2026-05-03 23:10 52.21916 -44.53833 37226 ft 514 kts 71°
2026-05-03 23:11 52.24073 -44.42711 37226 ft 514 kts 71°
2026-05-03 23:11 52.26220 -44.31577 37224 ft 514 kts 71°
2026-05-03 23:12 52.28340 -44.20516 37230 ft 514 kts 71°
2026-05-03 23:12 52.30467 -44.09356 37239 ft 515 kts 72°
2026-05-03 23:13 52.32548 -43.98376 37240 ft 515 kts 72°
2026-05-03 23:13 52.34657 -43.87179 37239 ft 516 kts 72°
2026-05-03 23:14 52.36757 -43.75960 37255 ft 516 kts 72°
2026-05-03 23:14 52.38847 -43.64729 37249 ft 516 kts 72°
2026-05-03 23:15 52.40928 -43.53478 37259 ft 516 kts 72°
2026-05-03 23:15 52.42998 -43.42220 37258 ft 516 kts 72°
2026-05-03 23:16 52.45057 -43.30954 37261 ft 516 kts 73°
2026-05-03 23:16 52.47104 -43.19685 37272 ft 516 kts 73°
2026-05-03 23:17 52.49140 -43.08402 37268 ft 515 kts 73°
2026-05-03 23:17 52.51119 -42.97373 37272 ft 515 kts 73°
2026-05-03 23:18 52.53130 -42.86089 37277 ft 515 kts 73°
2026-05-03 23:18 52.55130 -42.74803 37287 ft 515 kts 73°
2026-05-03 23:19 52.57121 -42.63497 37288 ft 515 kts 74°
2026-05-03 23:19 52.59099 -42.52187 37293 ft 515 kts 74°
2026-05-03 23:20 52.61067 -42.40869 37293 ft 515 kts 74°
2026-05-03 23:20 52.63024 -42.29538 37296 ft 515 kts 74°
2026-05-03 23:21 52.64957 -42.18273 37309 ft 515 kts 74°
2026-05-03 23:21 52.66906 -42.06846 37306 ft 515 kts 74°
2026-05-03 23:22 52.69752 -41.90019 37304 ft 515 kts 75°
2026-05-03 23:22 52.71647 -41.78725 37311 ft 515 kts 75°
2026-05-03 23:23 52.73545 -41.67338 37319 ft 515 kts 75°
2026-05-03 23:23 52.75434 -41.55925 37324 ft 515 kts 75°
2026-05-03 23:24 52.77312 -41.44507 37320 ft 516 kts 75°
2026-05-03 23:24 52.79181 -41.33069 37321 ft 516 kts 75°
2026-05-03 23:25 52.81039 -41.21620 37340 ft 516 kts 75°
2026-05-03 23:25 52.82888 -41.10144 37337 ft 517 kts 75°
2026-05-03 23:26 52.84692 -40.98878 37338 ft 517 kts 75°
2026-05-03 23:26 52.86522 -40.87367 37340 ft 517 kts 75°
2026-05-03 23:27 52.88342 -40.75838 37340 ft 518 kts 76°
2026-05-03 23:27 52.90152 -40.64294 37347 ft 518 kts 76°
2026-05-03 23:28 52.91952 -40.52731 37349 ft 518 kts 76°
2026-05-03 23:28 52.93740 -40.41165 37350 ft 519 kts 76°
2026-05-03 23:29 52.95518 -40.29578 37351 ft 519 kts 76°
2026-05-03 23:29 52.97287 -40.17971 37360 ft 519 kts 76°
2026-05-03 23:30 52.99046 -40.06357 37360 ft 519 kts 76°
2026-05-03 23:30 53.01102 -39.95165 37360 ft 519 kts 68°
2026-05-03 23:31 53.03893 -39.84106 37364 ft 519 kts 66°
2026-05-03 23:31 53.06733 -39.73075 37361 ft 519 kts 66°
2026-05-03 23:32 53.09533 -39.61994 37367 ft 520 kts 67°
2026-05-03 23:32 53.12298 -39.50865 37375 ft 520 kts 67°
2026-05-03 23:33 53.15026 -39.39792 37374 ft 520 kts 67°
2026-05-03 23:33 53.17782 -39.28549 37374 ft 521 kts 67°
2026-05-03 23:34 53.20495 -39.17440 37375 ft 521 kts 67°
2026-05-03 23:34 53.23216 -39.06246 37370 ft 521 kts 68°
2026-05-03 23:35 53.25879 -38.95234 37374 ft 520 kts 68°
2026-05-03 23:35 53.28577 -38.84019 37375 ft 520 kts 68°
2026-05-03 23:36 53.31265 -38.72785 37382 ft 521 kts 68°
2026-05-03 23:36 53.33943 -38.61533 37382 ft 521 kts 68°
2026-05-03 23:37 53.36612 -38.50265 37386 ft 521 kts 68°
2026-05-03 23:37 53.39271 -38.38979 37388 ft 521 kts 68°
2026-05-03 23:38 53.41918 -38.27685 37393 ft 521 kts 68°
2026-05-03 23:38 53.44557 -38.16363 37388 ft 521 kts 68°
2026-05-03 23:39 53.47185 -38.05029 37390 ft 521 kts 68°
2026-05-03 23:39 53.49752 -37.93902 37391 ft 522 kts 68°
2026-05-03 23:40 53.52362 -37.82527 37391 ft 522 kts 68°
2026-05-03 23:40 53.54961 -37.71139 37400 ft 522 kts 68°
2026-05-03 23:41 53.57551 -37.59728 37398 ft 522 kts 68°
2026-05-03 23:41 53.60127 -37.48317 37399 ft 522 kts 68°
2026-05-03 23:42 53.62695 -37.36882 37402 ft 522 kts 69°
2026-05-03 23:42 53.65250 -37.25437 37403 ft 522 kts 69°
2026-05-03 23:43 53.67795 -37.13980 37405 ft 522 kts 69°
2026-05-03 23:43 53.70332 -37.02491 37402 ft 522 kts 69°
2026-05-03 23:44 53.72807 -36.91224 37390 ft 522 kts 69°
2026-05-03 23:44 53.75320 -36.79719 37413 ft 522 kts 69°
2026-05-03 23:45 53.77805 -36.68279 37409 ft 522 kts 69°
2026-05-03 23:45 53.80298 -36.56738 37410 ft 522 kts 69°
2026-05-03 23:46 53.82778 -36.45195 37410 ft 522 kts 69°
2026-05-03 23:46 53.85249 -36.33623 37416 ft 522 kts 69°
2026-05-03 23:47 53.87709 -36.22039 37409 ft 523 kts 69°
2026-05-03 23:47 53.90159 -36.10440 37411 ft 523 kts 69°
2026-05-03 23:48 53.92187 -36.00784 37411 ft 523 kts 70°
2026-05-03 23:48 53.94569 -35.89386 37413 ft 523 kts 70°
2026-05-03 23:49 53.96989 -35.77735 37408 ft 523 kts 70°
2026-05-03 23:49 53.99397 -35.66078 37414 ft 523 kts 70°
2026-05-03 23:50 54.01792 -35.54414 37413 ft 523 kts 70°
2026-05-03 23:50 54.04179 -35.42721 37410 ft 523 kts 70°
2026-05-03 23:51 54.06554 -35.31019 37416 ft 523 kts 70°
2026-05-03 23:51 54.08920 -35.19292 37413 ft 523 kts 70°
2026-05-03 23:52 54.11271 -35.07566 37415 ft 523 kts 70°
2026-05-03 23:52 54.13570 -34.96035 37415 ft 523 kts 71°
2026-05-03 23:53 54.15898 -34.84288 37418 ft 523 kts 71°
2026-05-03 23:53 54.18200 -34.72597 37411 ft 523 kts 71°
2026-05-03 23:54 54.20519 -34.60755 37404 ft 522 kts 71°
2026-05-03 23:54 54.22808 -34.48988 37410 ft 522 kts 71°
2026-05-03 23:55 54.25071 -34.37285 37410 ft 522 kts 71°
2026-05-03 23:55 54.27338 -34.25495 37409 ft 522 kts 71°
2026-05-03 23:56 54.29592 -34.13696 37417 ft 522 kts 71°
2026-05-03 23:56 54.31835 -34.01877 37414 ft 522 kts 71°
2026-05-03 23:57 54.34024 -33.90276 37418 ft 522 kts 71°
2026-05-03 23:57 54.36245 -33.78432 37416 ft 522 kts 72°
2026-05-03 23:58 54.38454 -33.66574 37407 ft 522 kts 72°
2026-05-03 23:58 54.40650 -33.54713 37411 ft 521 kts 72°
2026-05-03 23:59 54.42834 -33.42840 37408 ft 521 kts 72°
2026-05-03 23:59 54.45005 -33.30963 37414 ft 521 kts 72°
2026-05-04 00:00 54.47160 -33.19098 37408 ft 520 kts 72°
2026-05-04 00:00 54.49303 -33.07223 37409 ft 519 kts 72°
2026-05-04 00:01 54.51392 -32.95569 37411 ft 519 kts 72°
2026-05-04 00:01 54.53507 -32.83697 37418 ft 519 kts 73°
2026-05-04 00:02 54.55608 -32.71822 37409 ft 518 kts 73°
2026-05-04 00:02 54.57696 -32.59947 37406 ft 517 kts 73°
2026-05-04 00:03 54.59755 -32.48155 37408 ft 517 kts 73°
2026-05-04 00:03 54.61829 -32.36205 37401 ft 517 kts 73°
2026-05-04 00:04 54.63878 -32.24319 37400 ft 516 kts 73°
2026-05-04 00:04 54.65896 -32.12529 37396 ft 515 kts 73°
2026-05-04 00:05 54.67914 -32.00663 37401 ft 515 kts 73°
2026-05-04 00:05 54.69879 -31.89027 37402 ft 514 kts 74°
2026-05-04 00:06 54.71872 -31.77149 37401 ft 514 kts 74°
2026-05-04 00:06 54.73852 -31.65269 37395 ft 514 kts 74°
2026-05-04 00:07 54.75816 -31.53399 37398 ft 513 kts 74°
2026-05-04 00:07 54.77770 -31.41515 37388 ft 513 kts 74°
2026-05-04 00:08 54.79711 -31.29621 37391 ft 513 kts 74°
2026-05-04 00:08 54.81639 -31.17728 37388 ft 513 kts 75°
2026-05-04 00:09 54.83555 -31.05825 37387 ft 512 kts 75°
2026-05-04 00:09 54.85423 -30.94136 37386 ft 512 kts 75°
2026-05-04 00:10 54.87316 -30.82214 37389 ft 512 kts 75°
2026-05-04 00:10 54.89196 -30.70280 37386 ft 512 kts 75°
2026-05-04 00:11 54.91066 -30.58330 37385 ft 512 kts 75°
2026-05-04 00:11 54.92924 -30.46373 37379 ft 513 kts 75°
2026-05-04 00:12 54.94771 -30.34396 37378 ft 513 kts 75°
2026-05-04 00:12 54.96605 -30.22414 37389 ft 513 kts 75°
2026-05-04 00:13 54.98428 -30.10418 37377 ft 513 kts 75°
2026-05-04 00:13 55.00200 -29.98679 37375 ft 513 kts 75°
2026-05-04 00:14 55.01947 -29.86634 37373 ft 512 kts 76°
2026-05-04 00:14 55.03649 -29.74577 37373 ft 512 kts 76°
2026-05-04 00:15 55.05343 -29.62504 37366 ft 513 kts 76°
2026-05-04 00:15 55.07034 -29.50427 37361 ft 512 kts 76°
2026-05-04 00:16 55.08714 -29.38348 37365 ft 512 kts 76°
2026-05-04 00:16 55.10385 -29.26244 37357 ft 513 kts 76°
2026-05-04 00:17 55.12031 -29.14219 37358 ft 513 kts 76°
2026-05-04 00:17 55.13678 -29.02094 37358 ft 513 kts 76°
2026-05-04 00:18 55.15279 -28.90202 37357 ft 513 kts 76°
2026-05-04 00:18 55.16904 -28.78041 37358 ft 513 kts 77°
2026-05-04 00:19 55.18514 -28.65885 37364 ft 513 kts 77°
2026-05-04 00:19 55.20113 -28.53713 37347 ft 513 kts 76°
2026-05-04 00:20 55.21700 -28.41528 37353 ft 513 kts 77°
2026-05-04 00:20 55.23277 -28.29328 37347 ft 513 kts 77°
2026-05-04 00:21 55.24839 -28.17126 37347 ft 513 kts 77°
2026-05-04 00:21 55.26389 -28.04919 37347 ft 513 kts 77°
2026-05-04 00:22 55.27894 -27.92964 37340 ft 513 kts 77°
2026-05-04 00:22 55.29420 -27.80737 37340 ft 513 kts 77°
2026-05-04 00:23 55.30934 -27.68500 37336 ft 513 kts 77°
2026-05-04 00:23 55.32436 -27.56253 37334 ft 513 kts 77°
2026-05-04 00:24 55.33924 -27.44007 37335 ft 513 kts 77°
2026-05-04 00:24 55.35402 -27.31742 37323 ft 513 kts 77°
2026-05-04 00:25 55.36865 -27.19478 37329 ft 513 kts 77°
2026-05-04 00:25 55.38308 -27.07279 37326 ft 513 kts 77°
2026-05-04 00:26 55.39719 -26.95243 37332 ft 513 kts 77°
2026-05-04 00:26 55.41147 -26.82940 37317 ft 513 kts 77°
2026-05-04 00:27 55.42564 -26.70622 37321 ft 513 kts 78°
2026-05-04 00:27 55.43968 -26.58306 37312 ft 513 kts 78°
2026-05-04 00:28 55.45360 -26.45970 37318 ft 513 kts 78°
2026-05-04 00:28 55.46738 -26.33637 37314 ft 513 kts 78°
2026-05-04 00:29 55.48105 -26.21287 37312 ft 513 kts 78°
2026-05-04 00:29 55.49460 -26.08931 37315 ft 513 kts 78°
2026-05-04 00:30 55.50765 -25.96906 37305 ft 513 kts 78°
2026-05-04 00:30 55.52095 -25.84533 37315 ft 513 kts 79°
2026-05-04 00:31 55.53414 -25.72137 37310 ft 514 kts 79°
2026-05-04 00:31 55.54720 -25.59729 37306 ft 514 kts 79°
2026-05-04 00:32 55.56007 -25.47387 37308 ft 514 kts 79°
2026-05-04 00:32 55.57288 -25.34965 37305 ft 514 kts 79°
2026-05-04 00:33 55.59189 -25.16295 37293 ft 514 kts 79°
2026-05-04 00:34 55.60439 -25.03861 37294 ft 513 kts 79°
2026-05-04 00:34 55.61645 -24.91724 37296 ft 513 kts 79°
2026-05-04 00:35 55.62868 -24.79290 37291 ft 513 kts 79°
2026-05-04 00:35 55.64080 -24.66833 37296 ft 513 kts 79°
2026-05-04 00:36 55.65279 -24.54367 37288 ft 514 kts 80°
2026-05-04 00:36 55.66275 -24.43908 37284 ft 513 kts 80°
2026-05-04 00:37 55.67443 -24.31509 37287 ft 513 kts 80°
2026-05-04 00:37 55.68614 -24.18935 37284 ft 514 kts 80°
2026-05-04 00:38 55.69757 -24.06520 37272 ft 513 kts 80°
2026-05-04 00:38 55.70871 -23.94293 37275 ft 513 kts 80°
2026-05-04 00:39 55.71996 -23.81790 37271 ft 514 kts 80°
2026-05-04 00:39 55.73110 -23.69255 37260 ft 514 kts 81°
2026-05-04 00:40 55.74212 -23.56707 37265 ft 514 kts 81°
2026-05-04 00:40 55.75300 -23.44173 37255 ft 514 kts 81°
2026-05-04 00:41 55.76374 -23.31634 37260 ft 514 kts 81°
2026-05-04 00:41 55.77437 -23.19078 37259 ft 514 kts 81°
2026-05-04 00:42 55.78488 -23.06502 37255 ft 515 kts 81°
2026-05-04 00:42 55.79506 -22.94169 37248 ft 515 kts 81°
2026-05-04 00:43 55.80532 -22.81575 37246 ft 515 kts 81°
2026-05-04 00:43 55.81544 -22.68985 37251 ft 514 kts 81°
2026-05-04 00:44 55.82542 -22.56409 37240 ft 513 kts 81°
2026-05-04 00:44 55.83525 -22.43857 37243 ft 512 kts 81°
2026-05-04 00:45 55.84495 -22.31293 37243 ft 513 kts 81°
2026-05-04 00:45 55.85453 -22.18724 37234 ft 513 kts 81°
2026-05-04 00:46 55.86396 -22.06158 37232 ft 513 kts 81°
2026-05-04 00:46 55.87307 -21.93866 37241 ft 512 kts 81°
2026-05-04 00:47 55.88225 -21.81294 37228 ft 512 kts 82°
2026-05-04 00:47 55.89131 -21.68705 37229 ft 513 kts 82°
2026-05-04 00:48 55.90020 -21.56177 37225 ft 513 kts 82°
2026-05-04 00:48 55.90900 -21.43571 37221 ft 512 kts 82°
2026-05-04 00:49 55.91768 -21.30974 37225 ft 512 kts 82°
2026-05-04 00:49 55.92622 -21.18371 37220 ft 513 kts 82°
2026-05-04 00:50 55.93464 -21.05737 37217 ft 513 kts 82°
2026-05-04 00:50 55.94277 -20.93364 37208 ft 513 kts 83°
2026-05-04 00:51 55.95093 -20.80740 37209 ft 512 kts 83°
2026-05-04 00:51 55.95897 -20.68105 37210 ft 512 kts 83°
2026-05-04 00:52 55.96687 -20.55469 37210 ft 513 kts 83°
2026-05-04 00:52 55.97465 -20.42816 37210 ft 512 kts 83°
2026-05-04 00:53 55.98229 -20.30170 37198 ft 512 kts 83°
2026-05-04 00:53 55.98979 -20.17541 37201 ft 511 kts 83°
2026-05-04 00:54 55.99718 -20.04914 37197 ft 510 kts 83°
2026-05-04 00:54 56.00225 -19.92573 37196 ft 509 kts 87°
2026-05-04 00:55 56.00446 -19.80024 37199 ft 508 kts 88°
2026-05-04 00:55 56.00629 -19.67398 37205 ft 509 kts 88°
2026-05-04 00:56 56.00827 -19.54745 37201 ft 509 kts 88°
2026-05-04 00:56 56.01029 -19.42117 37193 ft 509 kts 88°
2026-05-04 00:57 56.01221 -19.29486 37186 ft 508 kts 88°
2026-05-04 00:57 56.01400 -19.16870 37185 ft 508 kts 87°
2026-05-04 00:58 56.01564 -19.04249 37194 ft 508 kts 88°
2026-05-04 00:58 56.01711 -18.91891 37177 ft 509 kts 88°
2026-05-04 00:59 56.01850 -18.79249 37180 ft 509 kts 88°
2026-05-04 00:59 56.01976 -18.66596 37184 ft 509 kts 88°
2026-05-04 01:00 56.02089 -18.53950 37182 ft 509 kts 88°
2026-05-04 01:00 56.02189 -18.41307 37188 ft 509 kts 88°
2026-05-04 01:01 56.02276 -18.28651 37179 ft 509 kts 88°
2026-05-04 01:01 56.02349 -18.15998 37178 ft 508 kts 88°
2026-05-04 01:02 56.02411 -18.03381 37175 ft 508 kts 89°
2026-05-04 01:02 56.02458 -17.91014 37174 ft 507 kts 88°
2026-05-04 01:03 56.02494 -17.78400 37174 ft 508 kts 88°
2026-05-04 01:03 56.02516 -17.65781 37176 ft 508 kts 88°
2026-05-04 01:04 56.02526 -17.53155 37174 ft 508 kts 88°
2026-05-04 01:04 56.02522 -17.40523 37178 ft 508 kts 89°
2026-05-04 01:05 56.02507 -17.27972 37185 ft 508 kts 89°
2026-05-04 01:05 56.02478 -17.15342 37171 ft 508 kts 89°
2026-05-04 01:06 56.02435 -17.02725 37158 ft 507 kts 89°
2026-05-04 01:06 56.02382 -16.90352 37169 ft 507 kts 89°
2026-05-04 01:07 56.02315 -16.77768 37153 ft 506 kts 89°
2026-05-04 01:07 56.02235 -16.65173 37177 ft 506 kts 89°
2026-05-04 01:08 56.02142 -16.52589 37170 ft 507 kts 89°
2026-05-04 01:08 56.02037 -16.39996 37169 ft 507 kts 89°
2026-05-04 01:09 56.01918 -16.27410 37155 ft 506 kts 89°
2026-05-04 01:09 56.01787 -16.14853 37158 ft 505 kts 89°
2026-05-04 01:10 56.01644 -16.02326 37158 ft 504 kts 89°
2026-05-04 01:10 56.01491 -15.90059 37155 ft 503 kts 89°
2026-05-04 01:11 56.01324 -15.77647 37152 ft 502 kts 89°
2026-05-04 01:11 56.01143 -15.65088 37164 ft 502 kts 90°
2026-05-04 01:12 56.00952 -15.52693 37161 ft 502 kts 90°
2026-05-04 01:12 56.00746 -15.40219 37155 ft 502 kts 90°
2026-05-04 01:13 56.00528 -15.27745 37150 ft 502 kts 90°
2026-05-04 01:13 56.00298 -15.15279 37153 ft 502 kts 90°
2026-05-04 01:14 56.00058 -15.02810 37152 ft 502 kts 90°
2026-05-04 01:14 55.99931 -14.90583 37147 ft 501 kts 88°
2026-05-04 01:15 56.00017 -14.78129 37152 ft 502 kts 87°
2026-05-04 01:15 56.00087 -14.65665 37144 ft 502 kts 88°
2026-05-04 01:16 56.00105 -14.53198 37144 ft 502 kts 88°
2026-05-04 01:16 56.00098 -14.40723 37141 ft 502 kts 88°
2026-05-04 01:17 56.00080 -14.28263 37167 ft 501 kts 88°
2026-05-04 01:17 56.00054 -14.15825 37143 ft 500 kts 88°
2026-05-04 01:18 56.00001 -14.03411 37143 ft 499 kts 90°
2026-05-04 01:18 55.99179 -13.91300 37145 ft 501 kts 98°
2026-05-04 01:19 55.97800 -13.79096 37142 ft 501 kts 99°
2026-05-04 01:19 55.96405 -13.66909 37156 ft 501 kts 99°
2026-05-04 01:20 55.95034 -13.54706 37142 ft 502 kts 99°
2026-05-04 01:20 55.93679 -13.42578 37142 ft 502 kts 99°
2026-05-04 01:21 55.92306 -13.30377 37141 ft 502 kts 99°
2026-05-04 01:21 55.90918 -13.18180 37141 ft 502 kts 99°
2026-05-04 01:22 55.89516 -13.05979 37161 ft 503 kts 99°
2026-05-04 01:22 55.88127 -12.94015 37146 ft 503 kts 99°
2026-05-04 01:23 55.86701 -12.81840 37135 ft 502 kts 99°
2026-05-04 01:23 55.85264 -12.69687 37140 ft 501 kts 99°
2026-05-04 01:24 55.83817 -12.57554 37141 ft 501 kts 99°
2026-05-04 01:24 55.82362 -12.45457 37149 ft 500 kts 99°
2026-05-04 01:25 55.81142 -12.35405 37137 ft 500 kts 99°
2026-05-04 01:25 55.79665 -12.23321 37139 ft 500 kts 99°
2026-05-04 01:26 55.78174 -12.11234 37139 ft 500 kts 99°
2026-05-04 01:26 55.76704 -11.99425 37139 ft 501 kts 99°
2026-05-04 01:27 55.75190 -11.87359 37139 ft 501 kts 99°
2026-05-04 01:27 55.73664 -11.75299 37141 ft 501 kts 99°
2026-05-04 01:28 55.72127 -11.63261 37133 ft 500 kts 99°
2026-05-04 01:28 55.70578 -11.51231 37131 ft 500 kts 100°
2026-05-04 01:29 55.69021 -11.39236 37133 ft 499 kts 100°
2026-05-04 01:29 55.67454 -11.27257 37142 ft 499 kts 100°
2026-05-04 01:30 55.65873 -11.15277 37131 ft 499 kts 100°
2026-05-04 01:30 55.64281 -11.03312 37130 ft 499 kts 100°
2026-05-04 01:31 55.62705 -10.91559 37131 ft 499 kts 100°
2026-05-04 01:31 55.61089 -10.79608 37128 ft 500 kts 100°
2026-05-04 01:32 55.59462 -10.67665 37128 ft 500 kts 100°
2026-05-04 01:32 55.57821 -10.55718 37128 ft 500 kts 100°
2026-05-04 01:33 55.56168 -10.43776 37129 ft 501 kts 100°
2026-05-04 01:33 55.54501 -10.31828 37123 ft 501 kts 101°
2026-05-04 01:34 55.52822 -10.19878 37118 ft 501 kts 101°
2026-05-04 01:34 55.51133 -10.07942 37122 ft 502 kts 101°
2026-05-04 01:35 55.49327 -9.96320 37116 ft 504 kts 106°
2026-05-04 01:35 55.46968 -9.84747 37120 ft 505 kts 107°
2026-05-04 01:36 55.44531 -9.73126 37114 ft 506 kts 107°
2026-05-04 01:36 55.42109 -9.61502 37119 ft 506 kts 107°
2026-05-04 01:37 55.39694 -9.49868 37116 ft 505 kts 107°
2026-05-04 01:37 55.37278 -9.38265 37125 ft 505 kts 107°
2026-05-04 01:38 55.34853 -9.26690 37111 ft 504 kts 107°
2026-05-04 01:38 55.32419 -9.15143 37109 ft 504 kts 107°
2026-05-04 01:39 55.29973 -9.03612 37108 ft 504 kts 107°
2026-05-04 01:39 55.27567 -8.92330 37106 ft 503 kts 107°
2026-05-04 01:40 55.25102 -8.80833 37113 ft 503 kts 107°
2026-05-04 01:40 55.22628 -8.69362 37103 ft 504 kts 107°
2026-05-04 01:41 55.20140 -8.57890 37104 ft 504 kts 108°
2026-05-04 01:41 55.17644 -8.46445 37106 ft 503 kts 108°
2026-05-04 01:42 55.15136 -8.35012 37105 ft 503 kts 108°
2026-05-04 01:42 55.12621 -8.23605 37110 ft 504 kts 108°
2026-05-04 01:43 55.10087 -8.12174 37095 ft 504 kts 108°
2026-05-04 01:43 55.07543 -8.00762 37093 ft 505 kts 108°
2026-05-04 01:44 55.05043 -7.89611 37096 ft 505 kts 108°
2026-05-04 01:44 55.02474 -7.78208 37092 ft 505 kts 108°
2026-05-04 01:45 54.99915 -7.66916 37094 ft 505 kts 108°
2026-05-04 01:45 54.96030 -7.49886 37087 ft 504 kts 109°
2026-05-04 01:46 54.93431 -7.38566 37087 ft 504 kts 109°
2026-05-04 01:46 54.90822 -7.27262 37080 ft 503 kts 109°
2026-05-04 01:47 54.88204 -7.15984 37081 ft 503 kts 109°
2026-05-04 01:47 54.85579 -7.04731 37097 ft 503 kts 109°
2026-05-04 01:48 54.82984 -6.93662 37075 ft 504 kts 109°
2026-05-04 01:48 54.80332 -6.82413 37083 ft 504 kts 109°
2026-05-04 01:49 54.77670 -6.71181 37073 ft 504 kts 109°
2026-05-04 01:49 54.75001 -6.59975 37068 ft 503 kts 109°
2026-05-04 01:50 54.72322 -6.48787 37057 ft 503 kts 110°
2026-05-04 01:50 54.69635 -6.37617 37049 ft 503 kts 110°
2026-05-04 01:51 54.66940 -6.26462 37050 ft 503 kts 110°
2026-05-04 01:51 54.64175 -6.15350 37048 ft 504 kts 111°
2026-05-04 01:52 54.61286 -6.04321 37051 ft 504 kts 112°
2026-05-04 01:52 54.58451 -5.93575 37056 ft 504 kts 112°
2026-05-04 01:53 54.55557 -5.82581 37046 ft 504 kts 112°
2026-05-04 01:53 54.52663 -5.71596 37051 ft 503 kts 112°
2026-05-04 01:54 54.49764 -5.60642 37049 ft 503 kts 112°
2026-05-04 01:54 54.46859 -5.49720 37054 ft 502 kts 112°
2026-05-04 01:55 54.43942 -5.38809 37048 ft 502 kts 112°
2026-05-04 01:55 54.41017 -5.27921 37042 ft 502 kts 112°
2026-05-04 01:56 54.38116 -5.17174 37055 ft 503 kts 112°
2026-05-04 01:56 54.35167 -5.06298 37051 ft 503 kts 113°
2026-05-04 01:57 54.32266 -4.95651 37043 ft 503 kts 113°
2026-05-04 01:57 54.29300 -4.84815 37044 ft 502 kts 113°
2026-05-04 01:58 54.26346 -4.74072 37045 ft 502 kts 113°
2026-05-04 01:58 54.23360 -4.63268 37043 ft 503 kts 114°
2026-05-04 01:59 54.20363 -4.52469 37039 ft 503 kts 114°
2026-05-04 01:59 54.17356 -4.41675 37039 ft 503 kts 114°
2026-05-04 02:00 54.14308 -4.30927 37038 ft 503 kts 115°
2026-05-04 02:00 54.11060 -4.20352 37033 ft 504 kts 117°
2026-05-04 02:01 54.07766 -4.09807 37028 ft 504 kts 116°
2026-05-04 02:01 54.04558 -3.99463 37028 ft 504 kts 116°
2026-05-04 02:02 54.01289 -3.88906 37029 ft 504 kts 116°
2026-05-04 02:02 53.98022 -3.78397 37030 ft 504 kts 116°
2026-05-04 02:03 53.94734 -3.67877 37028 ft 504 kts 117°
2026-05-04 02:03 53.91434 -3.57356 37027 ft 505 kts 117°
2026-05-04 02:04 53.88496 -3.46563 37025 ft 504 kts 109°
2026-05-04 02:04 53.86609 -3.35133 37024 ft 504 kts 103°
2026-05-04 02:05 53.84926 -3.23591 37018 ft 505 kts 103°
2026-05-04 02:05 53.83211 -3.12062 37022 ft 505 kts 104°
2026-05-04 02:06 53.81455 -3.00536 37023 ft 506 kts 104°
2026-05-04 02:06 53.79713 -2.89256 37020 ft 507 kts 104°
2026-05-04 02:07 53.77916 -2.77708 37015 ft 508 kts 104°
2026-05-04 02:07 53.76110 -2.66166 37020 ft 508 kts 104°
2026-05-04 02:08 53.74293 -2.54624 37010 ft 508 kts 105°
2026-05-04 02:08 53.72463 -2.43082 37014 ft 509 kts 105°
2026-05-04 02:09 53.70621 -2.31548 37014 ft 509 kts 105°
2026-05-04 02:09 53.68779 -2.20092 37015 ft 509 kts 105°
2026-05-04 02:10 53.66916 -2.08582 37011 ft 508 kts 105°
2026-05-04 02:10 53.65075 -1.97288 37009 ft 508 kts 106°
2026-05-04 02:11 53.63497 -1.87663 37013 ft 509 kts 106°
2026-05-04 02:11 53.61604 -1.76187 37010 ft 509 kts 106°
2026-05-04 02:12 53.59696 -1.64705 37013 ft 509 kts 106°
2026-05-04 02:12 53.57776 -1.53217 37005 ft 510 kts 107°
2026-05-04 02:13 53.55844 -1.41742 37010 ft 510 kts 107°
2026-05-04 02:13 53.53903 -1.30282 37004 ft 510 kts 107°
2026-05-04 02:14 53.51949 -1.18826 37002 ft 510 kts 107°
2026-05-04 02:14 53.49985 -1.07384 37002 ft 510 kts 107°
2026-05-04 02:15 53.48045 -0.96155 37002 ft 509 kts 107°
2026-05-04 02:15 53.46061 -0.84745 37006 ft 509 kts 107°
2026-05-04 02:16 53.44066 -0.73342 36993 ft 509 kts 107°
2026-05-04 02:16 53.42059 -0.61945 36996 ft 509 kts 108°
2026-05-04 02:17 53.40056 -0.50641 36990 ft 509 kts 108°
2026-05-04 02:17 53.38028 -0.39266 36991 ft 509 kts 108°
2026-05-04 02:18 53.35989 -0.27907 36989 ft 509 kts 108°
2026-05-04 02:18 53.33941 -0.16563 36976 ft 509 kts 108°
2026-05-04 02:19 53.31878 -0.05212 36974 ft 510 kts 108°
2026-05-04 02:19 53.29846 0.05903 36977 ft 510 kts 108°
2026-05-04 02:20 53.27763 0.17229 36982 ft 510 kts 108°
2026-05-04 02:20 53.25669 0.28549 36978 ft 510 kts 108°
2026-05-04 02:21 53.23563 0.39860 36973 ft 510 kts 109°
2026-05-04 02:21 53.21445 0.51171 36968 ft 511 kts 109°
2026-05-04 02:22 53.19314 0.62480 36971 ft 512 kts 109°
2026-05-04 02:22 53.17169 0.73794 36975 ft 512 kts 109°
2026-05-04 02:23 53.15008 0.85125 36971 ft 513 kts 109°
2026-05-04 02:23 53.12836 0.96443 36970 ft 514 kts 109°
2026-05-04 02:24 53.10688 1.07577 36957 ft 514 kts 110°
2026-05-04 02:24 53.08491 1.18895 36971 ft 515 kts 110°
2026-05-04 02:25 53.06277 1.30230 36962 ft 516 kts 110°
2026-05-04 02:25 53.04051 1.41567 36965 ft 516 kts 110°
2026-05-04 02:26 53.01813 1.52895 36953 ft 516 kts 110°
2026-05-04 02:26 52.99580 1.64130 36938 ft 517 kts 111°
2026-05-04 02:27 52.97338 1.75352 36955 ft 517 kts 111°
2026-05-04 02:27 52.95088 1.86541 36957 ft 517 kts 111°
2026-05-04 02:28 52.92802 1.97849 36956 ft 517 kts 111°
2026-05-04 02:28 52.90549 2.08928 36948 ft 517 kts 111°
2026-05-04 02:29 52.88268 2.20088 36958 ft 517 kts 111°
2026-05-04 02:29 52.85957 2.31324 36955 ft 517 kts 111°
2026-05-04 02:30 52.83631 2.42574 36951 ft 517 kts 111°
2026-05-04 02:30 52.81291 2.53825 36936 ft 517 kts 111°
2026-05-04 02:31 52.78945 2.65050 36951 ft 517 kts 111°
2026-05-04 02:31 52.76590 2.76259 36954 ft 516 kts 111°
2026-05-04 02:32 52.74720 2.87729 36938 ft 519 kts 103°
2026-05-04 02:32 52.73311 2.99421 36955 ft 519 kts 103°
2026-05-04 02:33 52.72106 3.10944 36935 ft 520 kts 101°
2026-05-04 02:33 52.70989 3.22740 36942 ft 521 kts 101°
2026-05-04 02:34 52.69859 3.34553 36944 ft 522 kts 102°
2026-05-04 02:34 52.68692 3.46366 36944 ft 522 kts 102°
2026-05-04 02:35 52.67501 3.58178 36931 ft 523 kts 102°
2026-05-04 02:35 52.66295 3.70000 36949 ft 523 kts 102°
2026-05-04 02:36 52.65078 3.81824 36950 ft 524 kts 102°
2026-05-04 02:36 52.63848 3.93664 36951 ft 524 kts 102°
2026-05-04 02:37 52.62638 4.05196 36937 ft 525 kts 103°
2026-05-04 02:37 52.61383 4.17042 36952 ft 525 kts 103°
2026-05-04 02:38 52.60116 4.28881 36948 ft 526 kts 103°
2026-05-04 02:38 52.58837 4.40721 36946 ft 526 kts 103°
2026-05-04 02:39 52.57543 4.52575 36947 ft 526 kts 103°
2026-05-04 02:39 52.56238 4.64410 36942 ft 526 kts 103°
2026-05-04 02:40 52.54925 4.76217 36942 ft 526 kts 103°
2026-05-04 02:40 52.53596 4.88042 36945 ft 526 kts 103°
2026-05-04 02:41 52.52259 4.99842 36919 ft 526 kts 104°
2026-05-04 02:41 52.50935 5.11409 36944 ft 526 kts 104°
2026-05-04 02:42 52.49571 5.23208 36944 ft 527 kts 104°
2026-05-04 02:42 52.48195 5.35008 36940 ft 527 kts 104°
2026-05-04 02:43 52.46807 5.46814 36940 ft 527 kts 104°
2026-05-04 02:43 52.45404 5.58630 36936 ft 528 kts 104°
2026-05-04 02:44 52.43989 5.70441 36947 ft 528 kts 104°
2026-05-04 02:44 52.42562 5.82252 36937 ft 529 kts 105°
2026-05-04 02:45 52.41121 5.94065 36941 ft 529 kts 105°
2026-05-04 02:45 52.39697 6.05650 36931 ft 529 kts 105°
2026-05-04 02:46 52.38233 6.17447 36938 ft 529 kts 105°
2026-05-04 02:46 52.36757 6.29241 36937 ft 529 kts 105°
2026-05-04 02:47 52.35278 6.40954 36944 ft 529 kts 105°
2026-05-04 02:47 52.33769 6.52806 36940 ft 529 kts 106°
2026-05-04 02:48 52.32270 6.64487 36941 ft 528 kts 106°
2026-05-04 02:48 52.30749 6.76230 36942 ft 528 kts 106°
2026-05-04 02:49 52.29216 6.87974 36943 ft 528 kts 106°
2026-05-04 02:49 52.27672 6.99704 36937 ft 528 kts 106°
2026-05-04 02:50 52.26144 7.11217 36948 ft 528 kts 106°
2026-05-04 02:50 52.24578 7.22926 36951 ft 528 kts 106°
2026-05-04 02:51 52.23001 7.34618 36956 ft 528 kts 106°
2026-05-04 02:51 52.21415 7.46280 36946 ft 528 kts 106°
2026-05-04 02:52 52.19816 7.57955 36965 ft 527 kts 107°
2026-05-04 02:52 52.18206 7.69616 36964 ft 527 kts 107°
2026-05-04 02:53 52.16586 7.81255 36959 ft 527 kts 107°
2026-05-04 02:53 52.14955 7.92877 36955 ft 527 kts 107°
2026-05-04 02:54 52.13346 8.04264 36965 ft 526 kts 107°
2026-05-04 02:54 52.11705 8.15786 36960 ft 526 kts 107°
2026-05-04 02:55 52.09204 8.33179 36955 ft 527 kts 107°
2026-05-04 02:56 52.07525 8.44751 36951 ft 525 kts 107°
2026-05-04 02:56 52.05838 8.56287 36961 ft 524 kts 107°
2026-05-04 02:57 52.04142 8.67803 36952 ft 524 kts 107°
2026-05-04 02:57 52.02437 8.79291 36950 ft 523 kts 107°
2026-05-04 02:58 52.00724 8.90749 36946 ft 522 kts 107°
2026-05-04 02:58 51.99309 9.00152 36958 ft 521 kts 107°
2026-05-04 02:59 51.97598 9.11450 36954 ft 521 kts 107°
2026-05-04 02:59 51.95858 9.22856 36964 ft 521 kts 107°
2026-05-04 03:00 51.94108 9.34251 36963 ft 521 kts 108°
2026-05-04 03:00 51.92347 9.45640 36950 ft 521 kts 108°
2026-05-04 03:01 51.90574 9.57024 36960 ft 521 kts 108°
2026-05-04 03:01 51.88788 9.68404 36957 ft 522 kts 108°
2026-05-04 03:02 51.86996 9.79768 36937 ft 521 kts 108°
2026-05-04 03:02 51.85325 9.91159 36958 ft 521 kts 105°
2026-05-04 03:03 51.83839 10.02382 36979 ft 521 kts 105°
2026-05-04 03:03 51.82330 10.13649 36501 ft 507 kts 106°
2026-05-04 03:03 51.81565 10.19205 35781 ft 505 kts 106°
2026-05-04 03:04 51.80794 10.24737 34950 ft 505 kts 107°
2026-05-04 03:04 51.80017 10.30272 34125 ft 506 kts 107°
2026-05-04 03:04 51.79241 10.35785 33511 ft 500 kts 107°
2026-05-04 03:04 51.78474 10.41228 32900 ft 495 kts 107°
2026-05-04 03:05 51.77713 10.46617 32341 ft 490 kts 107°
2026-05-04 03:05 51.76957 10.51953 31798 ft 485 kts 107°
2026-05-04 03:05 51.76205 10.57235 31258 ft 481 kts 107°
2026-05-04 03:05 51.75457 10.62470 30741 ft 477 kts 107°
2026-05-04 03:06 51.74713 10.67666 30213 ft 473 kts 106°
2026-05-04 03:06 51.73973 10.72818 29625 ft 470 kts 107°
2026-05-04 03:06 51.73237 10.77924 29077 ft 465 kts 107°
2026-05-04 03:06 51.72480 10.82968 28562 ft 460 kts 109°
2026-05-04 03:07 51.71491 10.87824 28048 ft 452 kts 115°
2026-05-04 03:07 51.70340 10.92520 27539 ft 448 kts 116°
2026-05-04 03:07 51.69181 10.97160 27023 ft 445 kts 116°
2026-05-04 03:07 51.68072 11.01619 26533 ft 442 kts 116°
2026-05-04 03:08 51.66941 11.06210 26038 ft 439 kts 115°
2026-05-04 03:08 51.65825 11.10774 25552 ft 437 kts 115°
2026-05-04 03:08 51.64717 11.15316 25068 ft 434 kts 115°
2026-05-04 03:08 51.63614 11.19826 24578 ft 432 kts 115°
2026-05-04 03:09 51.62465 11.24274 24093 ft 428 kts 119°
2026-05-04 03:09 51.61076 11.28471 23643 ft 423 kts 125°
2026-05-04 03:09 51.59433 11.32350 23088 ft 418 kts 130°
2026-05-04 03:09 51.57718 11.36101 22570 ft 415 kts 130°
2026-05-04 03:10 51.56024 11.39836 22091 ft 412 kts 130°
2026-05-04 03:10 51.54358 11.43552 21615 ft 408 kts 130°
2026-05-04 03:10 51.52798 11.47337 21142 ft 406 kts 121°
2026-05-04 03:10 51.51824 11.51595 20706 ft 409 kts 106°
2026-05-04 03:11 51.51483 11.56127 20258 ft 410 kts 91°
2026-05-04 03:11 51.51715 11.60678 19828 ft 408 kts 86°
2026-05-04 03:11 51.52008 11.65193 19364 ft 406 kts 86°
2026-05-04 03:11 51.52274 11.69694 18919 ft 404 kts 87°
2026-05-04 03:12 51.52511 11.74175 18479 ft 402 kts 88°
2026-05-04 03:12 51.52732 11.78579 18009 ft 400 kts 88°
2026-05-04 03:12 51.52955 11.83081 17519 ft 398 kts 88°
2026-05-04 03:12 51.53174 11.87504 17055 ft 396 kts 88°
2026-05-04 03:13 51.53389 11.91836 16608 ft 394 kts 88°
2026-05-04 03:13 51.53604 11.96204 16168 ft 392 kts 88°
2026-05-04 03:13 51.53809 12.00429 15739 ft 390 kts 88°
2026-05-04 03:13 51.54019 12.04766 15296 ft 388 kts 88°
2026-05-04 03:14 51.54225 12.09082 14854 ft 387 kts 88°
2026-05-04 03:14 51.54428 12.13330 14413 ft 386 kts 89°
2026-05-04 03:14 51.54631 12.17620 13982 ft 385 kts 89°
2026-05-04 03:14 51.54833 12.21912 13517 ft 385 kts 89°
2026-05-04 03:15 51.55032 12.26189 13043 ft 384 kts 89°
2026-05-04 03:15 51.55229 12.30459 12594 ft 382 kts 89°
2026-05-04 03:15 51.55423 12.34709 12150 ft 381 kts 89°
2026-05-04 03:15 51.55616 12.38941 11697 ft 380 kts 89°
2026-05-04 03:16 51.55806 12.43170 11276 ft 378 kts 89°
2026-05-04 03:16 51.55994 12.47378 10842 ft 377 kts 89°
2026-05-04 03:16 51.56180 12.51567 10555 ft 372 kts 89°
2026-05-04 03:16 51.56361 12.55655 10402 ft 363 kts 89°
2026-05-04 03:17 51.56536 12.59656 10242 ft 355 kts 89°
2026-05-04 03:17 51.56705 12.63563 10090 ft 346 kts 89°
2026-05-04 03:17 51.56869 12.67373 9928 ft 338 kts 89°
2026-05-04 03:17 51.57027 12.71119 9731 ft 332 kts 90°
2026-05-04 03:18 51.57182 12.74787 9529 ft 324 kts 89°
2026-05-04 03:18 51.57331 12.78328 9423 ft 309 kts 91°
2026-05-04 03:18 51.57116 12.81669 8791 ft 301 kts 116°
2026-05-04 03:18 51.55983 12.84375 8341 ft 287 kts 143°
2026-05-04 03:19 51.54351 12.86048 7986 ft 273 kts 164°
2026-05-04 03:19 51.52546 12.86674 7644 ft 261 kts 182°
2026-05-04 03:19 51.50762 12.86527 7322 ft 253 kts 194°
2026-05-04 03:19 51.49165 12.85571 7007 ft 241 kts 213°
2026-05-04 03:20 51.47782 12.84121 6717 ft 235 kts 216°
2026-05-04 03:20 51.46450 12.82650 6443 ft 231 kts 216°
2026-05-04 03:20 51.45132 12.81174 6156 ft 229 kts 222°
2026-05-04 03:20 51.44164 12.79150 5892 ft 234 kts 243°
2026-05-04 03:21 51.43609 12.76656 5588 ft 242 kts 259°
2026-05-04 03:21 51.43455 12.73949 5308 ft 246 kts 265°
2026-05-04 03:21 51.43362 12.71204 5006 ft 246 kts 265°
2026-05-04 03:21 51.43269 12.68504 4711 ft 245 kts 265°
2026-05-04 03:22 51.43175 12.65749 4400 ft 243 kts 265°
2026-05-04 03:22 51.43073 12.63086 4245 ft 234 kts 264°
2026-05-04 03:22 51.42970 12.60586 4125 ft 222 kts 264°
2026-05-04 03:22 51.42867 12.58164 4029 ft 208 kts 264°
2026-05-04 03:23 51.42773 12.55960 3958 ft 192 kts 264°
2026-05-04 03:23 51.42683 12.53876 3969 ft 185 kts 263°
2026-05-04 03:23 51.42593 12.51844 3962 ft 182 kts 263°
2026-05-04 03:23 51.42503 12.49833 3965 ft 181 kts 263°
2026-05-04 03:24 51.42413 12.47820 3964 ft 182 kts 263°
2026-05-04 03:24 51.42322 12.45796 3972 ft 182 kts 263°
2026-05-04 03:24 51.42225 12.43704 3509 ft 197 kts 263°
2026-05-04 03:24 51.42118 12.41526 2998 ft 193 kts 263°
2026-05-04 03:25 51.42007 12.39411 2483 ft 187 kts 265°
2026-05-04 03:25 51.41936 12.37419 2127 ft 171 kts 266°
2026-05-04 03:25 51.41889 12.35595 1837 ft 159 kts 267°
2026-05-04 03:25 51.41822 12.33869 1578 ft 156 kts 263°
2026-05-04 03:26 51.41690 12.32139 1477 ft 156 kts 264°
2026-05-04 03:26 51.41609 12.30394 1344 ft 159 kts 265°
2026-05-04 03:26 51.41541 12.28626 1141 ft 155 kts 265°
2026-05-04 03:26 51.41456 12.26956 775 ft 145 kts 264°
2026-05-04 03:27 51.41393 12.25409 524 ft 137 kts 263°
2026-05-04 03:27 51.41323 12.23958 473 ft 119 kts 268°
2026-05-04 03:27 51.41278 12.23006 470 ft 53 kts 265°
2026-05-04 03:27 51.41223 12.22671 465 ft 26 kts 245°
2026-05-04 03:28 51.41132 12.22512 465 ft 12 kts 183°
2026-05-04 03:28 51.41090 12.22589 466 ft 10 kts 85°
2026-05-04 03:28 51.41096 12.22700 467 ft 10 kts 86°
2026-05-04 03:28 51.41101 12.22812 469 ft 10 kts 86°
2026-05-04 03:29 51.41105 12.22923 468 ft 10 kts 86°
2026-05-04 03:29 51.41111 12.23067 475 ft 20 kts 86°
2026-05-04 03:29 51.41117 12.23283 470 ft 4 kts 111°
2026-05-04 03:29 51.41089 12.23289 469 ft 7 kts 182°
2026-05-04 03:30 51.40977 12.23282 467 ft 19 kts 174°
2026-05-04 03:30 51.40840 12.23298 468 ft 21 kts 176°
2026-05-04 03:30 51.40787 12.23373 469 ft 11 kts 76°
2026-05-04 03:30 51.40789 12.23406 469 ft 0 kts 85°